FENGYUN 1C DEB, 30445

Orbit data source: Space-Track

FENGYUN 1C DEB, 30445 is space debris in SSO originally from a launch on Mon, 10 May 1999 UTC launched from the Taiyaun Space Center, China (TSC). Fengyun 1C debris stems from the Chinese weather satellite Fengyun-1C, which was intentionally destroyed by a Chinese anti-satellite missile in 2007. This event dramatically increased the amount of space debris, with thousands of trackable fragments posing hazards to satellites and human spaceflight. The Fengyun 1C debris cloud has become a focal point in discussions about space sustainability and the need for international regulations to prevent the creation of new debris.

Loading next visibility...
Identifier
30445, 1999-025AFG
Orbit
SSO
Country
Flag of CNCN / PRC
Related business
Manufacturer
Unknown
Mission
Spacecraft
Bus & Motor
Unknown
Mass
Unknown
Launch date (UTC)
1999-05-10 (27 years ago)
Launch vehicle
Unknown
Launch site
Taiyaun Space Center, China (TSC)
Object type
Payload
Rocket body
Debris
Shape & HBR
Unknown shape, 0.1 m
Radar Cross Section
Small (<0.1 m²)

Expand to show TLE details & history
Last TLE update: 1 day ago

TLE from 1 day ago
0 FENGYUN 1C DEB
1 30445U 99025AFG 25310.80697424  .00003029  00000-0  76457-3 0  9998
2 30445  98.8297 260.5208 0106461 125.2899 235.8307 14.48465852986646
Epoch: 2025-11-06T19:22Z
TLE epoch observation values (Epoch: 2025-11-06T19:22:02.574Z)
Latitude
-0.00001°
Longitude
-76.24992°
Altitude
776.675 km
Speed
7.443 km/s
True Right ascension
17h 22m 04s
True Declination
0° 00' 00"
Sunlit
Object was in daylight at epoch
Visualization orbit readout
Latitude
Unknown
Longitude
Unknown
Altitude
Unknown
Speed
Unknown
Apparent Right ascension
Unknown
Apparent Declination
Unknown
Sunlit
N/A
Visualization observer readout
Local Sidereal Time
18:54:59
Azimuth
Unknown
Elevation
Unknown
Doppler factor
Unknown
Orbital elements
Apogee altitude
803.44 km
Perigee altitude
652.139 km
Semi-major axis
7,105.927 km
Eccentricity
0.01065
Inclination
98.8297°
RAAN
260.5208°
Arg. of periapsis
125.2899°
True anomaly
234.82887°
Mean anomaly
235.8307°
Eccentric anomaly
235.32904°
Mean motion
3.62337 °/min
Orbital period
99.36 mins
BSTAR
0.00076457
Loading maneuver chart data...
Computing Atmospheric mass density...

Documentation

Showing up to 5 results
|